Hourly Weather Alliance

Today, 4 March, Thursday

Time Temperature Precipitation Wind Pressure Humidity
00:00 +1°C° 0 mm 2 mps 730 mmHg 89%
01:00 +1°C° 0 mm 2 mps 730 mmHg 89%
02:00 0°C° 0 mm 3 mps 731 mmHg 91%
03:00 0°C° 0 mm 3 mps 731 mmHg 94%
04:00 0°C° 0 mm 3 mps 731 mmHg 96%
05:00 -2°C° 0 mm 4 mps 731 mmHg 93%
06:00 -2°C° 0 mm 4 mps 732 mmHg 91%
07:00 -2°C° 0 mm 5 mps 732 mmHg 88%
08:00 -2°C° 0 mm 5 mps 732 mmHg 84%
09:00 -2°C° 0 mm 5 mps 733 mmHg 80%
10:00 -2°C° 0 mm 5 mps 733 mmHg 76%
11:00 -2°C° 0 mm 5 mps 733 mmHg 72%
12:00 -1°C° 0 mm 5 mps 733 mmHg 67%
13:00 -1°C° 0 mm 5 mps 733 mmHg 63%
14:00 -1°C° 0 mm 5 mps 733 mmHg 62%
15:00 -2°C° 0 mm 6 mps 733 mmHg 61%
16:00 -3°C° 0 mm 6 mps 733 mmHg 60%
17:00 -4°C° 0 mm 5 mps 734 mmHg 64%
18:00 -5°C° 0 mm 5 mps 734 mmHg 69%
19:00 -7°C° 0 mm 4 mps 734 mmHg 74%
20:00 -7°C° 0 mm 4 mps 734 mmHg 74%
21:00 -8°C° 0 mm 4 mps 735 mmHg 75%
22:00 -9°C° 0 mm 4 mps 735 mmHg 75%
23:00 -9°C° 0 mm 4 mps 735 mmHg 74%

Tomorrow, 5 March, Friday

Time Temperature Precipitation Wind Pressure Humidity
00:00 -9°C° 0 mm 4 mps 735 mmHg 73%
01:00 -9°C° 0 mm 4 mps 735 mmHg 71%
02:00 -9°C° 0 mm 4 mps 735 mmHg 71%
03:00 -9°C° 0 mm 4 mps 735 mmHg 70%
04:00 -9°C° 0 mm 4 mps 735 mmHg 70%
05:00 -9°C° 0 mm 4 mps 735 mmHg 70%
06:00 -8°C° 0 mm 3 mps 735 mmHg 70%
07:00 -8°C° 0 mm 3 mps 735 mmHg 69%
08:00 -8°C° 0 mm 4 mps 735 mmHg 61%
09:00 -7°C° 0 mm 4 mps 736 mmHg 53%
10:00 -4°C° 0 mm 4 mps 736 mmHg 45%
11:00 -4°C° 0 mm 5 mps 736 mmHg 42%
12:00 -2°C° 0 mm 5 mps 735 mmHg 38%
13:00 -2°C° 0 mm 6 mps 735 mmHg 34%
14:00 -2°C° 0 mm 6 mps 735 mmHg 38%
15:00 -2°C° 0 mm 6 mps 734 mmHg 41%
16:00 -2°C° 0 mm 6 mps 734 mmHg 45%
17:00 -4°C° 0 mm 5 mps 734 mmHg 51%
18:00 -4°C° 0 mm 4 mps 734 mmHg 57%
19:00 -5°C° 0 mm 3 mps 734 mmHg 64%
20:00 -5°C° 0 mm 2 mps 734 mmHg 67%
21:00 -5°C° 0 mm 2 mps 735 mmHg 70%
22:00 -5°C° 0 mm 2 mps 735 mmHg 73%
23:00 -6°C° 0 mm 3 mps 735 mmHg 76%

Day after tomorrow, 6 March, Saturday

Time Temperature Precipitation Wind Pressure Humidity
00:00 -6°C° 0 mm 3 mps 735 mmHg 79%
01:00 -6°C° 0 mm 3 mps 735 mmHg 81%
02:00 -6°C° 0 mm 3 mps 735 mmHg 82%
03:00 -6°C° 0 mm 3 mps 735 mmHg 82%
04:00 -6°C° 0 mm 3 mps 735 mmHg 83%
05:00 -7°C° 0 mm 3 mps 735 mmHg 83%
06:00 -7°C° 0 mm 3 mps 736 mmHg 83%
07:00 -7°C° 0 mm 3 mps 736 mmHg 83%
08:00 -6°C° 0 mm 3 mps 736 mmHg 73%
09:00 -4°C° 0 mm 4 mps 736 mmHg 62%
10:00 -3°C° 0 mm 4 mps 737 mmHg 52%
11:00 -2°C° 0 mm 4 mps 737 mmHg 48%
12:00 0°C° 0 mm 5 mps 737 mmHg 43%
13:00 +1°C° 0 mm 5 mps 736 mmHg 39%
14:00 +1°C° 0 mm 5 mps 736 mmHg 39%
15:00 +1°C° 0 mm 5 mps 736 mmHg 39%
16:00 +1°C° 0 mm 5 mps 735 mmHg 39%
17:00 -1°C° 0 mm 4 mps 735 mmHg 46%
18:00 -1°C° 0 mm 3 mps 736 mmHg 52%
19:00 -3°C° 0 mm 2 mps 736 mmHg 59%
20:00 -3°C° 0 mm 2 mps 736 mmHg 62%
21:00 -4°C° 0 mm 2 mps 736 mmHg 64%
22:00 -4°C° 0 mm 2 mps 736 mmHg 67%
23:00 -4°C° 0 mm 2 mps 736 mmHg 69%

7 March, Sunday

Time Temperature Precipitation Wind Pressure Humidity
00:00 -4°C° 0 mm 2 mps 736 mmHg 71%
01:00 -4°C° 0 mm 2 mps 736 mmHg 73%
02:00 -4°C° 0 mm 2 mps 736 mmHg 75%
03:00 -4°C° 0 mm 2 mps 736 mmHg 76%
04:00 -4°C° 0 mm 2 mps 736 mmHg 78%
05:00 -4°C° 0 mm 2 mps 737 mmHg 80%
06:00 -5°C° 0 mm 2 mps 737 mmHg 83%
07:00 -5°C° 0 mm 2 mps 737 mmHg 85%
08:00 -3°C° 0 mm 2 mps 738 mmHg 74%
09:00 -1°C° 0 mm 3 mps 738 mmHg 64%
10:00 +1°C° 0 mm 3 mps 739 mmHg 53%
11:00 +2°C° 0 mm 3 mps 739 mmHg 50%
12:00 +4°C° 0 mm 4 mps 739 mmHg 48%
13:00 +5°C° 0 mm 4 mps 738 mmHg 45%
14:00 +5°C° 0 mm 4 mps 738 mmHg 47%
15:00 +5°C° 0 mm 4 mps 738 mmHg 48%
16:00 +6°C° 0 mm 4 mps 738 mmHg 50%
17:00 +4°C° 0 mm 3 mps 738 mmHg 58%
18:00 +3°C° 0 mm 2 mps 738 mmHg 67%
19:00 +2°C° 0 mm 1 mps 738 mmHg 75%
20:00 +2°C° 0 mm 1 mps 738 mmHg 76%
21:00 +1°C° 0 mm 1 mps 738 mmHg 78%
22:00 +1°C° 0 mm 1 mps 738 mmHg 79%
23:00 -1°C° 0 mm 2 mps 738 mmHg 82%

8 March, Monday

Time Temperature Precipitation Wind Pressure Humidity
00:00 -1°C° 0 mm 2 mps 738 mmHg 86%
01:00 -1°C° 0 mm 2 mps 738 mmHg 89%
02:00 -1°C° 0 mm 2 mps 738 mmHg 90%
03:00 -1°C° 0 mm 3 mps 737 mmHg 91%
04:00 -1°C° 0 mm 3 mps 737 mmHg 92%
05:00 -1°C° 0 mm 3 mps 737 mmHg 92%
06:00 -1°C° 0 mm 3 mps 737 mmHg 91%
07:00 -2°C° 0 mm 4 mps 737 mmHg 91%
08:00 0°C° 0 mm 4 mps 737 mmHg 83%
09:00 +2°C° 0 mm 5 mps 737 mmHg 76%
10:00 +5°C° 0 mm 5 mps 737 mmHg 68%
11:00 +5°C° 0 mm 6 mps 736 mmHg 64%
12:00 +8°C° 0 mm 6 mps 736 mmHg 60%
13:00 +9°C° 0 mm 6 mps 736 mmHg 55%
14:00 +9°C° 0 mm 6 mps 736 mmHg 58%
15:00 +9°C° 0 mm 5 mps 735 mmHg 61%
16:00 +9°C° 0 mm 5 mps 735 mmHg 64%
17:00 +8°C° 0 mm 4 mps 735 mmHg 68%
18:00 +8°C° 0 mm 4 mps 735 mmHg 71%
19:00 +7°C° 0 mm 4 mps 736 mmHg 75%
20:00 +7°C° 0 mm 4 mps 736 mmHg 79%
21:00 +7°C° 0 mm 3 mps 736 mmHg 83%
22:00 +7°C° 0 mm 3 mps 736 mmHg 86%
23:00 +7°C° 0.1 mm 3 mps 736 mmHg 89%

9 March, Tuesday

Time Temperature Precipitation Wind Pressure Humidity
00:00 +5°C° 0.1 mm 3 mps 736 mmHg 91%
01:00 +5°C° 0.1 mm 3 mps 736 mmHg 94%
02:00 +5°C° 0 mm 2 mps 737 mmHg 94%
03:00 +4°C° 0 mm 2 mps 737 mmHg 94%
04:00 +4°C° 0 mm 2 mps 737 mmHg 94%
05:00 +3°C° 0 mm 2 mps 737 mmHg 93%
06:00 +3°C° 0 mm 1 mps 738 mmHg 92%
07:00 +2°C° 0 mm 1 mps 738 mmHg 92%
08:00 +4°C° 0 mm 1 mps 739 mmHg 84%
09:00 +6°C° 0 mm 1 mps 739 mmHg 77%
10:00 +8°C° 0 mm 1 mps 739 mmHg 69%
11:00 +9°C° 0 mm 1 mps 739 mmHg 64%
12:00 +11°C° 0 mm 1 mps 739 mmHg 59%
13:00 +12°C° 0 mm 2 mps 739 mmHg 53%
14:00 +13°C° 0 mm 2 mps 739 mmHg 56%
15:00 +13°C° 0 mm 2 mps 738 mmHg 58%
16:00 +14°C° 0 mm 2 mps 738 mmHg 60%
17:00 +12°C° 0 mm 2 mps 738 mmHg 68%
18:00 +11°C° 0 mm 1 mps 738 mmHg 76%
19:00 +10°C° 0 mm 1 mps 738 mmHg 85%
20:00 +8°C° 0 mm 2 mps 738 mmHg 87%
21:00 +8°C° 0 mm 2 mps 738 mmHg 89%
22:00 +8°C° 0 mm 3 mps 738 mmHg 92%
23:00 +7°C° 0 mm 3 mps 737 mmHg 92%
Show more